| time (UTC) | temp C | wind direction | speed KPH | gust KPH | rain 1hr cm | rain 24hr cm | rain mn cm | humidity % | barometer mb |
| 20260906234607 | 21 | 153 | 9.7 | 32.2 | 0.00 | 0.00 | 0.00 | 16 | 1020.4 |
| 20260906234057 | 22 | 0 | 11.3 | 27.4 | 0.00 | 0.00 | 0.00 | 16 | 1020.4 |
| 20260906233558 | 22 | 177 | 4.8 | 24.1 | 0.00 | 0.00 | 0.00 | 15 | 1020.5 |
| 20260906233118 | 22 | 226 | 12.9 | 27.4 | 0.00 | 0.00 | 0.00 | 15 | 1020.3 |
| 20260906232557 | 22 | 79 | 6.4 | 27.4 | 0.00 | 0.00 | 0.00 | 14 | 1020.3 |
| 20260906232057 | 22 | 166 | 8.0 | 27.4 | 0.00 | 0.00 | 0.00 | 13 | 1020.1 |
| 20260906231602 | 22 | 160 | 9.7 | 32.2 | 0.00 | 0.00 | 0.00 | 13 | 1020.0 |
| 20260906231058 | 22 | 134 | 9.7 | 38.6 | 0.00 | 0.00 | 0.00 | 12 | 1020.0 |
| 20260906230558 | 22 | 121 | 8.0 | 38.6 | 0.00 | 0.00 | 0.00 | 12 | 1020.1 |
| 20260906230116 | 22 | 150 | 14.5 | 45.1 | 0.00 | 0.00 | 0.00 | 13 | 1020.0 |
| 20260906225559 | 22 | 155 | 9.7 | 45.1 | 0.00 | 0.00 | 0.00 | 11 | 1020.1 |
| 20260906225059 | 22 | 272 | 14.5 | 45.1 | 0.00 | 0.00 | 0.00 | 12 | 1020.0 |
| 20260906224621 | 22 | 275 | 11.3 | 33.8 | 0.00 | 0.00 | 0.00 | 15 | 1019.9 |
| 20260906224057 | 22 | 158 | 11.3 | 33.8 | 0.00 | 0.00 | 0.00 | 13 | 1019.7 |
| 20260906223558 | 22 | 144 | 9.7 | 38.6 | 0.00 | 0.00 | 0.00 | 15 | 1019.9 |
| 20260906223107 | 22 | 139 | 11.3 | 38.6 | 0.00 | 0.00 | 0.00 | 11 | 1019.8 |
| 20260906222557 | 22 | 298 | 20.9 | 38.6 | 0.00 | 0.00 | 0.00 | 14 | 1020.0 |
| 20260906222057 | 22 | 244 | 11.3 | 38.6 | 0.00 | 0.00 | 0.00 | 14 | 1019.9 |
| 20260906221605 | 22 | 130 | 9.7 | 30.6 | 0.00 | 0.00 | 0.00 | 16 | 1020.0 |
| 20260906221057 | 22 | 152 | 11.3 | 48.3 | 0.00 | 0.00 | 0.00 | 14 | 1020.0 |
| 20260906220558 | 22 | 110 | 17.7 | 48.3 | 0.00 | 0.00 | 0.00 | 15 | 1019.9 |
| 20260906220110 | 23 | 171 | 14.5 | 32.2 | 0.00 | 0.00 | 0.00 | 15 | 1019.9 |
| 20260906215558 | 23 | 183 | 11.3 | 25.7 | 0.00 | 0.00 | 0.00 | 14 | 1020.2 |
| 20260906215058 | 23 | 227 | 4.8 | 32.2 | 0.00 | 0.00 | 0.00 | 17 | 1020.1 |
| 20260906214606 | 22 | 191 | 16.1 | 40.2 | 0.00 | 0.00 | 0.00 | 18 | 1019.9 |
| 20260906214100 | 23 | 91 | 3.2 | 40.2 | 0.00 | 0.00 | 0.00 | 18 | 1020.2 |
| 20260906213558 | 22 | 171 | 16.1 | 32.2 | 0.00 | 0.00 | 0.00 | 16 | 1019.9 |
| 20260906213106 | 23 | 134 | 14.5 | 29.0 | 0.00 | 0.00 | 0.00 | 16 | 1020.0 |
| 20260906212557 | 23 | 148 | 8.0 | 30.6 | 0.00 | 0.00 | 0.00 | 15 | 1020.2 |
| 20260906212058 | 23 | 226 | 8.0 | 30.6 | 0.00 | 0.00 | 0.00 | 15 | 1020.1 |
| 20260906211612 | 23 | 126 | 16.1 | 30.6 | 0.00 | 0.00 | 0.00 | 13 | 1020.1 |
| 20260906211057 | 23 | 167 | 6.4 | 17.7 | 0.00 | 0.00 | 0.00 | 14 | 1020.3 |
| 20260906210559 | 23 | 128 | 6.4 | 25.7 | 0.00 | 0.00 | 0.00 | 15 | 1020.3 |
| 20260906210112 | 23 | 213 | 9.7 | 25.7 | 0.00 | 0.00 | 0.00 | 15 | 1020.4 |
| 20260906205558 | 23 | 141 | 6.4 | 25.7 | 0.00 | 0.00 | 0.00 | 14 | 1020.2 |
| 20260906205057 | 24 | 112 | 0.0 | 8.0 | 0.00 | 0.00 | 0.00 | 15 | 1020.3 |
| 20260906204612 | 24 | 221 | 1.6 | 14.5 | 0.00 | 0.00 | 0.00 | 15 | 1020.2 |
| 20260906204057 | 23 | 68 | 3.2 | 14.5 | 0.00 | 0.00 | 0.00 | 15 | 1020.2 |
| 20260906203558 | 23 | 18 | 4.8 | 14.5 | 0.00 | 0.00 | 0.00 | 13 | 1020.2 |
| 20260906203106 | 23 | 288 | 4.8 | 11.3 | 0.00 | 0.00 | 0.00 | 13 | 1020.3 |
| 20260906202601 | 23 | 329 | 4.8 | 22.5 | 0.00 | 0.00 | 0.00 | 14 | 1020.1 |
| 20260906202058 | 22 | 62 | 6.4 | 22.5 | 0.00 | 0.00 | 0.00 | 14 | 1020.2 |
| 20260906201613 | 22 | 55 | 11.3 | 49.9 | 0.00 | 0.00 | 0.00 | 15 | 1020.4 |
| 20260906201058 | 22 | 312 | 12.9 | 49.9 | 0.00 | 0.00 | 0.00 | 14 | 1020.5 |
| 20260906200557 | 22 | 60 | 14.5 | 24.1 | 0.00 | 0.00 | 0.00 | 16 | 1020.4 |
| 20260906200106 | 23 | 49 | 6.4 | 20.9 | 0.00 | 0.00 | 0.00 | 16 | 1020.3 |
| 20260906195557 | 22 | 336 | 6.4 | 20.9 | 0.00 | 0.00 | 0.00 | 15 | 1020.5 |
| 20260906195059 | 22 | 56 | 8.0 | 22.5 | 0.00 | 0.00 | 0.00 | 13 | 1020.4 |
| 20260906194607 | 22 | 68 | 9.7 | 22.5 | 0.00 | 0.00 | 0.00 | 13 | 1020.5 |
| 20260906194058 | 22 | 120 | 4.8 | 20.9 | 0.00 | 0.00 | 0.00 | 14 | 1020.5 |
| 20260906193558 | 23 | 28 | 6.4 | 16.1 | 0.00 | 0.00 | 0.00 | 14 | 1020.6 |
| 20260906193108 | 23 | 36 | 1.6 | 14.5 | 0.00 | 0.00 | 0.00 | 15 | 1020.7 |
| 20260906192556 | 23 | 296 | 3.2 | 14.5 | 0.00 | 0.00 | 0.00 | 14 | 1020.9 |
| 20260906192057 | 22 | 308 | 4.8 | 17.7 | 0.00 | 0.00 | 0.00 | 14 | 1020.8 |
| 20260906191605 | 22 | 0 | 3.2 | 19.3 | 0.00 | 0.00 | 0.00 | 14 | 1020.8 |
| 20260906191057 | 22 | 94 | 8.0 | 22.5 | 0.00 | 0.00 | 0.00 | 15 | 1020.8 |
| 20260906190602 | 22 | 315 | 4.8 | 27.4 | 0.00 | 0.00 | 0.00 | 14 | 1020.7 |
| 20260906190114 | 22 | 60 | 6.4 | 27.4 | 0.00 | 0.00 | 0.00 | 16 | 1020.8 |
| 20260906185601 | 22 | 104 | 11.3 | 27.4 | 0.00 | 0.00 | 0.00 | 12 | 1020.9 |
| 20260906185058 | 22 | 92 | 6.4 | 17.7 | 0.00 | 0.00 | 0.00 | 12 | 1020.6 |
| 20260906184611 | 22 | 37 | 8.0 | 17.7 | 0.00 | 0.00 | 0.00 | 14 | 1020.6 |
| 20260906184057 | 23 | 312 | 6.4 | 14.5 | 0.00 | 0.00 | 0.00 | 15 | 1020.5 |
| 20260906183558 | 22 | 308 | 3.2 | 19.3 | 0.00 | 0.00 | 0.00 | 13 | 1020.5 |
| 20260906183116 | 22 | 44 | 6.4 | 35.4 | 0.00 | 0.00 | 0.00 | 15 | 1020.5 |
| 20260906182558 | 21 | 340 | 11.3 | 35.4 | 0.00 | 0.00 | 0.00 | 17 | 1020.5 |
| 20260906182057 | 22 | 250 | 4.8 | 24.1 | 0.00 | 0.00 | 0.00 | 17 | 1020.5 |
| 20260906181610 | 21 | 39 | 8.0 | 27.4 | 0.00 | 0.00 | 0.00 | 19 | 1020.4 |
| 20260906181058 | 21 | 40 | 14.5 | 30.6 | 0.00 | 0.00 | 0.00 | 19 | 1020.3 |
| 20260906180557 | 20 | 346 | 11.3 | 30.6 | 0.00 | 0.00 | 0.00 | 18 | 1020.3 |
| 20260906180124 | 20 | 68 | 12.9 | 30.6 | 0.00 | 0.00 | 0.00 | 19 | 1020.4 |
| 20260906175558 | 20 | 28 | 17.7 | 30.6 | 0.00 | 0.00 | 0.00 | 20 | 1020.4 |
| 20260906175057 | 20 | 48 | 9.7 | 24.1 | 0.00 | 0.00 | 0.00 | 19 | 1020.4 |
| 20260906174607 | 20 | 50 | 9.7 | 24.1 | 0.00 | 0.00 | 0.00 | 19 | 1020.6 |
| 20260906174058 | 20 | 45 | 12.9 | 40.2 | 0.00 | 0.00 | 0.00 | 18 | 1020.8 |
| 20260906173601 | 20 | 137 | 16.1 | 40.2 | 0.00 | 0.00 | 0.00 | 16 | 1020.8 |
| 20260906173119 | 20 | 59 | 19.3 | 40.2 | 0.00 | 0.00 | 0.00 | 18 | 1020.6 |
| 20260906172558 | 19 | 11 | 14.5 | 25.7 | 0.00 | 0.00 | 0.00 | 20 | 1020.8 |
| 20260906172100 | 20 | 72 | 8.0 | 25.7 | 0.00 | 0.00 | 0.00 | 19 | 1020.9 |
| 20260906171603 | 20 | 44 | 9.7 | 24.1 | 0.00 | 0.00 | 0.00 | 17 | 1021.1 |
| 20260906171057 | 21 | 30 | 9.7 | 17.7 | 0.00 | 0.00 | 0.00 | 19 | 1020.9 |
| 20260906170559 | 21 | 4 | 3.2 | 17.7 | 0.00 | 0.00 | 0.00 | 18 | 1021.1 |
| 20260906170127 | 21 | 352 | 3.2 | 17.7 | 0.00 | 0.00 | 0.00 | 17 | 1021.1 |
| 20260906165558 | 20 | 302 | 6.4 | 17.7 | 0.00 | 0.00 | 0.00 | 16 | 1020.9 |
| 20260906165058 | 20 | 51 | 3.2 | 25.7 | 0.00 | 0.00 | 0.00 | 19 | 1020.8 |
| 20260906164606 | 20 | 297 | 0.0 | 25.7 | 0.00 | 0.00 | 0.00 | 22 | 1020.9 |
| 20260906164058 | 19 | 84 | 12.9 | 25.7 | 0.00 | 0.00 | 0.00 | 21 | 1021.1 |
| 20260906163557 | 18 | 335 | 4.8 | 16.1 | 0.00 | 0.00 | 0.00 | 24 | 1021.2 |
| 20260906163114 | 18 | 52 | 6.4 | 20.9 | 0.00 | 0.00 | 0.00 | 24 | 1021.0 |
| 20260906162557 | 17 | 77 | 11.3 | 20.9 | 0.00 | 0.00 | 0.00 | 25 | 1021.1 |
| 20260906162057 | 17 | 104 | 9.7 | 19.3 | 0.00 | 0.00 | 0.00 | 25 | 1021.2 |
| 20260906161615 | 17 | 55 | 4.8 | 16.1 | 0.00 | 0.00 | 0.00 | 25 | 1021.4 |
| 20260906161057 | 17 | 131 | 6.4 | 14.5 | 0.00 | 0.00 | 0.00 | 26 | 1021.3 |
| 20260906160557 | 17 | 167 | 6.4 | 14.5 | 0.00 | 0.00 | 0.00 | 25 | 1021.4 |
| 20260906155559 | 16 | 53 | 1.6 | 6.4 | 0.00 | 0.00 | 0.00 | 28 | 1021.5 |
| 20260906155057 | 16 | 63 | 1.6 | 4.8 | 0.00 | 0.00 | 0.00 | 30 | 1021.7 |
| 20260906154606 | 16 | 0 | 0.0 | 4.8 | 0.00 | 0.00 | 0.00 | 30 | 1022.1 |
| 20260906154058 | 15 | 0 | 3.2 | 4.8 | 0.00 | 0.00 | 0.00 | 30 | 1022.0 |
| 20260906153558 | 15 | 63 | 0.0 | 3.2 | 0.00 | 0.00 | 0.00 | 28 | 1022.1 |
| 20260906153104 | 14 | 240 | 0.0 | 8.0 | 0.00 | 0.00 | 0.00 | 31 | 1022.0 |
| 20260906152557 | 13 | 0 | 1.6 | 8.0 | 0.00 | 0.00 | 0.00 | 34 | 1022.1 |
| 20260906152057 | 13 | 64 | 0.0 | 3.2 | 0.00 | 0.00 | 0.00 | 37 | 1022.1 |
| 20260906151614 | 13 | 0 | 0.0 | 4.8 | 0.00 | 0.00 | 0.00 | 37 | 1022.2 |
| 20260906151057 | 12 | 148 | 0.0 | 4.8 | 0.00 | 0.00 | 0.00 | 43 | 1022.0 |
| 20260906150557 | 12 | 56 | 0.0 | 3.2 | 0.00 | 0.00 | 0.00 | 42 | 1022.2 |
| 20260906150111 | 11 | 0 | 1.6 | 3.2 | 0.00 | 0.00 | 0.00 | 42 | 1022.0 |
| 20260906145557 | 11 | 0 | 0.0 | 1.6 | 0.00 | 0.00 | 0.00 | 42 | 1022.2 |
| 20260906145100 | 11 | 0 | 0.0 | 9.7 | 0.00 | 0.00 | 0.00 | 38 | 1022.1 |
| 20260906144605 | 10 | 0 | 0.0 | 9.7 | 0.00 | 0.00 | 0.00 | 39 | 1022.1 |
| 20260906144058 | 10 | 162 | 1.6 | 6.4 | 0.00 | 0.00 | 0.00 | 36 | 1022.0 |
| 20260906143557 | 7 | 82 | 0.0 | 4.8 | 0.00 | 0.00 | 0.00 | 43 | 1021.8 |
| 20260906143130 | 6 | 0 | 0.0 | 3.2 | 0.00 | 0.00 | 0.00 | 46 | 1021.9 |
| 20260906142600 | 6 | 18 | 0.0 | 1.6 | 0.00 | 0.00 | 0.00 | 44 | 1021.8 |
| 20260906142057 | 5 | 0 | 0.0 | 1.6 | 0.00 | 0.00 | 0.00 | 46 | 1021.8 |
| 20260906141608 | 5 | 0 | 0.0 | 1.6 | 0.00 | 0.00 | 0.00 | 46 | 1021.9 |
| 20260906141058 | 5 | 0 | 0.0 | 4.8 | 0.00 | 0.00 | 0.00 | 45 | 1021.7 |
| 20260906140558 | 6 | 148 | 0.0 | 4.8 | 0.00 | 0.00 | 0.00 | 46 | 1021.8 |
| 20260906140109 | 5 | 184 | 1.6 | 4.8 | 0.00 | 0.00 | 0.00 | 45 | 1021.8 |
| 20260906135557 | 5 | 200 | 0.0 | 4.8 | 0.00 | 0.00 | 0.00 | 47 | 1021.9 |
| 20260906135101 | 5 | 171 | 1.6 | 4.8 | 0.00 | 0.00 | 0.00 | 46 | 1021.6 |
| 20260906134613 | 5 | 0 | 0.0 | 3.2 | 0.00 | 0.00 | 0.00 | 45 | 1021.7 |
| 20260906134057 | 6 | 233 | 0.0 | 3.2 | 0.00 | 0.00 | 0.00 | 42 | 1021.6 |
| 20260906133557 | 6 | 235 | 0.0 | 6.4 | 0.00 | 0.00 | 0.00 | 43 | 1021.6 |
| 20260906133109 | 5 | 0 | 0.0 | 8.0 | 0.00 | 0.00 | 0.00 | 44 | 1021.6 |
| 20260906132558 | 5 | 0 | 3.2 | 8.0 | 0.00 | 0.00 | 0.00 | 43 | 1021.6 |
| 20260906132059 | 5 | 0 | 0.0 | 4.8 | 0.00 | 0.00 | 0.00 | 44 | 1021.4 |
| 20260906131601 | 5 | 0 | 0.0 | 4.8 | 0.00 | 0.00 | 0.00 | 44 | 1021.4 |
| 20260906131100 | 5 | 0 | 0.0 | 4.8 | 0.00 | 0.00 | 0.00 | 45 | 1021.4 |
| 20260906130557 | 5 | 158 | 0.0 | 4.8 | 0.00 | 0.00 | 0.00 | 47 | 1021.5 |
| 20260906130116 | 5 | 212 | 0.0 | 9.7 | 0.00 | 0.00 | 0.00 | 48 | 1021.2 |
| 20260906125557 | 5 | 0 | 0.0 | 9.7 | 0.00 | 0.00 | 0.00 | 49 | 1021.5 |
| 20260906125058 | 5 | 229 | 0.0 | 4.8 | 0.00 | 0.00 | 0.00 | 50 | 1021.5 |
| 20260906124606 | 5 | 6 | 0.0 | 4.8 | 0.00 | 0.00 | 0.00 | 48 | 1021.2 |
| 20260906124056 | 5 | 231 | 0.0 | 1.6 | 0.00 | 0.00 | 0.00 | 49 | 1021.4 |
| 20260906123558 | 5 | 256 | 0.0 | 3.2 | 0.00 | 0.00 | 0.00 | 48 | 1021.3 |
| 20260906123140 | 6 | 0 | 0.0 | 4.8 | 0.00 | 0.00 | 0.00 | 47 | 1021.4 |
| 20260906122559 | 5 | 156 | 1.6 | 9.7 | 0.00 | 0.00 | 0.00 | 49 | 1021.3 |
| 20260906122058 | 5 | 0 | 1.6 | 9.7 | 0.00 | 0.00 | 0.00 | 50 | 1021.4 |
| 20260906121605 | 5 | 145 | 0.0 | 4.8 | 0.00 | 0.00 | 0.00 | 49 | 1021.5 |
| 20260906121058 | 5 | 0 | 1.6 | 4.8 | 0.00 | 0.00 | 0.00 | 49 | 1021.5 |
| 20260906120558 | 5 | 0 | 0.0 | 3.2 | 0.00 | 0.00 | 0.00 | 48 | 1021.4 |
| 20260906120112 | 5 | 0 | 0.0 | 6.4 | 0.00 | 0.00 | 0.00 | 49 | 1021.6 |
| 20260906115557 | 5 | 0 | 0.0 | 6.4 | 0.00 | 0.00 | 0.00 | 49 | 1021.4 |
| 20260906115057 | 6 | 207 | 0.0 | 6.4 | 0.00 | 0.00 | 0.00 | 49 | 1021.5 |
| 20260906114611 | 6 | 248 | 1.6 | 4.8 | 0.00 | 0.00 | 0.00 | 48 | 1021.5 |
| 20260906114057 | 6 | 0 | 0.0 | 9.7 | 0.00 | 0.00 | 0.00 | 48 | 1021.5 |
| 20260906113556 | 6 | 0 | 0.0 | 9.7 | 0.00 | 0.00 | 0.00 | 47 | 1021.5 |
| 20260906113108 | 6 | 243 | 0.0 | 6.4 | 0.00 | 0.00 | 0.00 | 50 | 1021.5 |
| 20260906112558 | 6 | 115 | 1.6 | 6.4 | 0.00 | 0.00 | 0.00 | 49 | 1021.4 |
| 20260906112056 | 7 | 0 | 0.0 | 3.2 | 0.00 | 0.00 | 0.00 | 47 | 1021.6 |
| 20260906111606 | 7 | 0 | 0.0 | 3.2 | 0.00 | 0.00 | 0.00 | 46 | 1021.5 |
| 20260906111058 | 7 | 222 | 0.0 | 4.8 | 0.00 | 0.00 | 0.00 | 47 | 1021.5 |
| 20260906110559 | 7 | 0 | 0.0 | 6.4 | 0.00 | 0.00 | 0.00 | 48 | 1021.5 |
| 20260906110106 | 7 | 0 | 3.2 | 6.4 | 0.00 | 0.00 | 0.00 | 48 | 1021.6 |
| 20260906105558 | 7 | 0 | 0.0 | 8.0 | 0.00 | 0.00 | 0.00 | 47 | 1021.5 |
| 20260906105058 | 7 | 0 | 0.0 | 8.0 | 0.00 | 0.00 | 0.00 | 47 | 1021.5 |
| 20260906104609 | 8 | 217 | 3.2 | 8.0 | 0.00 | 0.00 | 0.00 | 47 | 1021.7 |
| 20260906104056 | 8 | 0 | 0.0 | 4.8 | 0.00 | 0.00 | 0.00 | 46 | 1021.6 |
| 20260906103557 | 8 | 235 | 1.6 | 4.8 | 0.00 | 0.00 | 0.00 | 46 | 1021.7 |
| 20260906103106 | 8 | 92 | 3.2 | 4.8 | 0.00 | 0.00 | 0.00 | 45 | 1021.5 |
| 20260906102558 | 8 | 0 | 0.0 | 4.8 | 0.00 | 0.00 | 0.00 | 45 | 1021.5 |
| 20260906102058 | 9 | 219 | 0.0 | 4.8 | 0.00 | 0.00 | 0.00 | 44 | 1021.6 |
| 20260906101605 | 8 | 84 | 1.6 | 9.7 | 0.00 | 0.00 | 0.00 | 45 | 1021.6 |
| 20260906101057 | 8 | 181 | 0.0 | 9.7 | 0.00 | 0.00 | 0.00 | 46 | 1021.8 |
| 20260906100557 | 8 | 72 | 3.2 | 9.7 | 0.00 | 0.00 | 0.00 | 47 | 1021.6 |
| 20260906100110 | 8 | 0 | 1.6 | 11.3 | 0.00 | 0.00 | 0.00 | 47 | 1021.7 |
| 20260906095557 | 8 | 162 | 0.0 | 11.3 | 0.00 | 0.00 | 0.00 | 48 | 1022.0 |
| 20260906095058 | 7 | 75 | 6.4 | 11.3 | 0.00 | 0.00 | 0.00 | 50 | 1021.9 |
| 20260906094609 | 7 | 0 | 1.6 | 6.4 | 0.00 | 0.00 | 0.00 | 50 | 1021.8 |
| 20260906094058 | 7 | 68 | 3.2 | 6.4 | 0.00 | 0.00 | 0.00 | 50 | 1021.8 |
| 20260906093558 | 7 | 0 | 3.2 | 11.3 | 0.00 | 0.00 | 0.00 | 51 | 1021.8 |
| 20260906093108 | 8 | 0 | 6.4 | 11.3 | 0.00 | 0.00 | 0.00 | 47 | 1021.9 |
| 20260906092558 | 7 | 141 | 1.6 | 3.2 | 0.00 | 0.00 | 0.00 | 50 | 1021.9 |
| 20260906092058 | 8 | 0 | 0.0 | 3.2 | 0.00 | 0.00 | 0.00 | 49 | 1022.0 |
| 20260906091607 | 8 | 0 | 0.0 | 3.2 | 0.00 | 0.00 | 0.00 | 48 | 1021.8 |
| 20260906091100 | 8 | 224 | 0.0 | 1.6 | 0.00 | 0.00 | 0.00 | 48 | 1022.0 |
| 20260906090559 | 10 | 0 | 0.0 | 4.8 | 0.00 | 0.00 | 0.00 | 46 | 1022.1 |
| 20260906090104 | 10 | 0 | 1.6 | 12.9 | 0.00 | 0.00 | 0.00 | 46 | 1022.0 |
| 20260906085557 | 10 | 52 | 6.4 | 12.9 | 0.00 | 0.00 | 0.00 | 46 | 1022.2 |
| 20260906085057 | 9 | 99 | 8.0 | 12.9 | 0.00 | 0.00 | 0.00 | 49 | 1022.0 |
| 20260906084606 | 8 | 54 | 1.6 | 4.8 | 0.00 | 0.00 | 0.00 | 52 | 1022.0 |
| 20260906084057 | 8 | 0 | 0.0 | 11.3 | 0.00 | 0.00 | 0.00 | 52 | 1022.2 |
| 20260906083558 | 9 | 0 | 0.0 | 14.5 | 0.00 | 0.00 | 0.00 | 51 | 1022.1 |
| 20260906083106 | 8 | 79 | 8.0 | 14.5 | 0.00 | 0.00 | 0.00 | 52 | 1022.1 |
| 20260906082557 | 7 | 40 | 0.0 | 8.0 | 0.00 | 0.00 | 0.00 | 54 | 1022.0 |
| 20260906082058 | 8 | 169 | 1.6 | 8.0 | 0.00 | 0.00 | 0.00 | 53 | 1022.1 |
| 20260906081604 | 8 | 62 | 0.0 | 4.8 | 0.00 | 0.00 | 0.00 | 53 | 1022.0 |
| 20260906081058 | 8 | 0 | 1.6 | 4.8 | 0.00 | 0.00 | 0.00 | 51 | 1022.0 |
| 20260906080558 | 9 | 0 | 3.2 | 4.8 | 0.00 | 0.00 | 0.00 | 51 | 1021.9 |
| 20260906080103 | 9 | 140 | 0.0 | 6.4 | 0.00 | 0.00 | 0.00 | 51 | 1022.0 |
| 20260906075618 | 10 | 0 | 0.0 | 12.9 | 0.00 | 0.00 | 0.00 | 50 | 1022.0 |
| 20260906075058 | 10 | 77 | 6.4 | 12.9 | 0.00 | 0.00 | 0.00 | 50 | 1022.0 |
| 20260906074614 | 9 | 53 | 1.6 | 14.5 | 0.00 | 0.00 | 0.00 | 52 | 1021.7 |
| 20260906074055 | 10 | 0 | 3.2 | 14.5 | 0.00 | 0.00 | 0.00 | 52 | 1022.0 |
| 20260906073600 | 8 | 65 | 8.0 | 11.3 | 0.00 | 0.00 | 0.00 | 57 | 1021.9 |
| 20260906073105 | 7 | 0 | 0.0 | 1.6 | 0.00 | 0.00 | 0.00 | 58 | 1021.9 |
| 20260906072558 | 7 | 0 | 0.0 | 1.6 | 0.00 | 0.00 | 0.00 | 58 | 1022.0 |
| 20260906072058 | 7 | 0 | 0.0 | 1.6 | 0.00 | 0.00 | 0.00 | 58 | 1022.0 |
| 20260906071605 | 7 | 30 | 0.0 | 1.6 | 0.00 | 0.00 | 0.00 | 61 | 1021.9 |
| 20260906071057 | 7 | 0 | 0.0 | 1.6 | 0.00 | 0.00 | 0.00 | 60 | 1022.0 |
| 20260906070558 | 7 | 0 | 0.0 | 1.6 | 0.00 | 0.00 | 0.00 | 61 | 1021.9 |
| 20260906070111 | 7 | 0 | 0.0 | 1.6 | 0.00 | 0.00 | 0.00 | 60 | 1021.9 |
| 20260906065558 | 8 | 0 | 0.0 | 1.6 | 0.00 | 0.00 | 0.00 | 60 | 1021.8 |
| 20260906065058 | 8 | 17 | 0.0 | 3.2 | 0.00 | 0.00 | 0.00 | 59 | 1022.0 |
| 20260906064606 | 8 | 0 | 0.0 | 3.2 | 0.00 | 0.00 | 0.00 | 59 | 1021.8 |
| 20260906064058 | 8 | 354 | 0.0 | 3.2 | 0.00 | 0.00 | 0.00 | 58 | 1021.7 |
| 20260906063556 | 8 | 200 | 0.0 | 1.6 | 0.00 | 0.00 | 0.00 | 58 | 1021.9 |
| 20260906063106 | 8 | 0 | 0.0 | 1.6 | 0.00 | 0.00 | 0.00 | 58 | 1021.8 |
| 20260906062555 | 9 | 0 | 0.0 | 3.2 | 0.00 | 0.00 | 0.00 | 58 | 1021.9 |
| 20260906062055 | 9 | 0 | 0.0 | 3.2 | 0.00 | 0.00 | 0.00 | 57 | 1022.0 |
| 20260906061607 | 10 | 0 | 0.0 | 6.4 | 0.00 | 0.00 | 0.00 | 57 | 1022.1 |
| 20260906061057 | 10 | 0 | 1.6 | 8.0 | 0.00 | 0.00 | 0.00 | 57 | 1022.0 |
| 20260906060555 | 9 | 59 | 3.2 | 8.0 | 0.00 | 0.00 | 0.00 | 58 | 1021.9 |
| 20260906060105 | 9 | 158 | 3.2 | 6.4 | 0.00 | 0.00 | 0.00 | 59 | 1022.0 |
| 20260906055559 | 9 | 0 | 1.6 | 4.8 | 0.00 | 0.00 | 0.00 | 61 | 1022.0 |
| 20260906055057 | 9 | 136 | 0.0 | 4.8 | 0.00 | 0.00 | 0.00 | 61 | 1022.2 |
| 20260906054608 | 9 | 154 | 0.0 | 6.4 | 0.00 | 0.00 | 0.00 | 60 | 1022.2 |
| 20260906054056 | 9 | 0 | 1.6 | 8.0 | 0.00 | 0.00 | 0.00 | 60 | 1022.1 |
| 20260906053556 | 9 | 79 | 4.8 | 8.0 | 0.00 | 0.00 | 0.00 | 62 | 1022.1 |
| 20260906053110 | 8 | 101 | 3.2 | 6.4 | 0.00 | 0.00 | 0.00 | 62 | 1022.1 |
| 20260906052555 | 9 | 0 | 1.6 | 8.0 | 0.00 | 0.00 | 0.00 | 61 | 1022.2 |
| 20260906052059 | 8 | 105 | 0.0 | 8.0 | 0.00 | 0.00 | 0.00 | 61 | 1022.1 |
| 20260906051605 | 9 | 205 | 0.0 | 4.8 | 0.00 | 0.00 | 0.00 | 61 | 1022.4 |
| 20260906051058 | 9 | 0 | 0.0 | 4.8 | 0.00 | 0.00 | 0.00 | 60 | 1022.1 |
| 20260906050600 | 9 | 0 | 0.0 | 1.6 | 0.00 | 0.00 | 0.00 | 61 | 1022.2 |
| 20260906050108 | 9 | 0 | 0.0 | 3.2 | 0.00 | 0.00 | 0.00 | 61 | 1022.2 |
| 20260906045557 | 9 | 128 | 0.0 | 3.2 | 0.00 | 0.00 | 0.00 | 59 | 1022.2 |
| 20260906045103 | 10 | 0 | 0.0 | 1.6 | 0.00 | 0.00 | 0.00 | 59 | 1022.3 |
| 20260906044607 | 10 | 0 | 0.0 | 1.6 | 0.00 | 0.00 | 0.00 | 58 | 1022.4 |
| 20260906044054 | 10 | 0 | 0.0 | 1.6 | 0.00 | 0.00 | 0.00 | 58 | 1022.2 |
| 20260906043556 | 10 | 226 | 0.0 | 0.0 | 0.00 | 0.00 | 0.00 | 57 | 1022.1 |
| 20260906043107 | 11 | 0 | 0.0 | 0.0 | 0.00 | 0.00 | 0.00 | 57 | 1022.2 |
| 20260906042555 | 11 | 0 | 0.0 | 0.0 | 0.00 | 0.00 | 0.00 | 57 | 1022.1 |
| 20260906042055 | 11 | 166 | 0.0 | 3.2 | 0.00 | 0.00 | 0.00 | 57 | 1022.0 |
| 20260906041606 | 11 | 195 | 0.0 | 3.2 | 0.00 | 0.00 | 0.00 | 54 | 1022.1 |
| 20260906041057 | 12 | 0 | 0.0 | 1.6 | 0.00 | 0.00 | 0.00 | 55 | 1022.0 |
| 20260906040600 | 12 | 0 | 0.0 | 1.6 | 0.00 | 0.00 | 0.00 | 55 | 1022.0 |
| 20260906040112 | 12 | 172 | 0.0 | 1.6 | 0.00 | 0.00 | 0.00 | 54 | 1021.9 |
| 20260906035557 | 12 | 0 | 0.0 | 4.8 | 0.00 | 0.00 | 0.00 | 53 | 1021.8 |
| 20260906035101 | 13 | 0 | 1.6 | 4.8 | 0.00 | 0.00 | 0.00 | 52 | 1021.7 |
| 20260906034608 | 13 | 0 | 0.0 | 1.6 | 0.00 | 0.00 | 0.00 | 50 | 1021.6 |
| 20260906034057 | 13 | 0 | 0.0 | 8.0 | 0.00 | 0.00 | 0.00 | 48 | 1021.7 |
| 20260906033557 | 14 | 0 | 0.0 | 8.0 | 0.00 | 0.00 | 0.00 | 47 | 1021.6 |
| 20260906033116 | 14 | 0 | 1.6 | 8.0 | 0.00 | 0.00 | 0.00 | 46 | 1021.5 |
| 20260906032558 | 15 | 347 | 3.2 | 11.3 | 0.00 | 0.00 | 0.00 | 45 | 1021.5 |
| 20260906032057 | 15 | 32 | 3.2 | 11.3 | 0.00 | 0.00 | 0.00 | 43 | 1021.5 |
| 20260906031607 | 17 | 22 | 0.0 | 24.1 | 0.00 | 0.00 | 0.00 | 37 | 1021.2 |
| 20260906031100 | 18 | 340 | 6.4 | 24.1 | 0.00 | 0.00 | 0.00 | 20 | 1021.0 |
| 20260906030558 | 18 | 119 | 14.5 | 25.7 | 0.00 | 0.00 | 0.00 | 18 | 1021.0 |
| 20260906030109 | 18 | 141 | 9.7 | 30.6 | 0.00 | 0.00 | 0.00 | 19 | 1020.9 |
| 20260906025558 | 18 | 86 | 17.7 | 32.2 | 0.00 | 0.00 | 0.00 | 20 | 1021.1 |
| 20260906025058 | 18 | 133 | 17.7 | 32.2 | 0.00 | 0.00 | 0.00 | 21 | 1020.8 |
| 20260906024608 | 18 | 160 | 17.7 | 32.2 | 0.00 | 0.00 | 0.00 | 22 | 1021.1 |
| 20260906024100 | 18 | 155 | 14.5 | 24.1 | 0.00 | 0.00 | 0.00 | 22 | 1021.0 |
| 20260906023558 | 18 | 117 | 14.5 | 25.7 | 0.00 | 0.00 | 0.00 | 22 | 1021.0 |
| 20260906023104 | 18 | 149 | 12.9 | 29.0 | 0.00 | 0.00 | 0.00 | 23 | 1020.8 |
| 20260906022559 | 18 | 145 | 14.5 | 33.8 | 0.00 | 0.00 | 0.00 | 23 | 1020.9 |
| 20260906022102 | 18 | 111 | 16.1 | 33.8 | 0.00 | 0.00 | 0.00 | 22 | 1020.9 |
| 20260906021606 | 18 | 117 | 11.3 | 24.1 | 0.00 | 0.00 | 0.00 | 23 | 1020.9 |
| 20260906021057 | 18 | 180 | 12.9 | 24.1 | 0.00 | 0.00 | 0.00 | 24 | 1021.0 |
| 20260906020557 | 18 | 158 | 11.3 | 19.3 | 0.00 | 0.00 | 0.00 | 24 | 1021.0 |
| 20260906020113 | 18 | 139 | 6.4 | 20.9 | 0.00 | 0.00 | 0.00 | 23 | 1020.9 |
| 20260906015557 | 18 | 148 | 6.4 | 24.1 | 0.00 | 0.00 | 0.00 | 25 | 1020.9 |
| 20260906015058 | 18 | 102 | 11.3 | 24.1 | 0.00 | 0.00 | 0.00 | 23 | 1020.9 |
| 20260906014606 | 18 | 157 | 6.4 | 20.9 | 0.00 | 0.00 | 0.00 | 23 | 1020.9 |
| 20260906014057 | 18 | 141 | 9.7 | 20.9 | 0.00 | 0.00 | 0.00 | 23 | 1020.6 |
| 20260906013601 | 19 | 212 | 9.7 | 16.1 | 0.00 | 0.00 | 0.00 | 23 | 1020.6 |
| 20260906013111 | 19 | 128 | 8.0 | 16.1 | 0.00 | 0.00 | 0.00 | 23 | 1020.5 |
| 20260906012559 | 20 | 153 | 4.8 | 12.9 | 0.00 | 0.00 | 0.00 | 22 | 1020.5 |
| 20260906012057 | 20 | 0 | 3.2 | 12.9 | 0.00 | 0.00 | 0.00 | 22 | 1020.4 |
| 20260906011610 | 20 | 0 | 0.0 | 12.9 | 0.00 | 0.00 | 0.00 | 22 | 1020.6 |
| 20260906011058 | 20 | 94 | 3.2 | 20.9 | 0.00 | 0.00 | 0.00 | 22 | 1020.5 |
| 20260906010555 | 20 | 0 | 4.8 | 20.9 | 0.00 | 0.00 | 0.00 | 21 | 1020.6 |
| 20260906010107 | 21 | 104 | 11.3 | 17.7 | 0.00 | 0.00 | 0.00 | 20 | 1020.6 |
| 20260906005555 | 21 | 75 | 0.0 | 11.3 | 0.00 | 0.00 | 0.00 | 21 | 1020.5 |
| 20260906005057 | 21 | 255 | 1.6 | 11.3 | 0.00 | 0.00 | 0.00 | 21 | 1020.6 |
| 20260906004610 | 21 | 242 | 4.8 | 24.1 | 0.00 | 0.00 | 0.00 | 22 | 1020.6 |
| 20260906004058 | 21 | 222 | 3.2 | 25.7 | 0.00 | 0.00 | 0.00 | 22 | 1020.5 |
| 20260906003558 | 21 | 116 | 14.5 | 25.7 | 0.00 | 0.00 | 0.00 | 20 | 1020.5 |
| 20260906003106 | 21 | 47 | 14.5 | 25.7 | 0.00 | 0.00 | 0.00 | 21 | 1020.4 |
| 20260906002557 | 21 | 105 | 9.7 | 20.9 | 0.00 | 0.00 | 0.00 | 22 | 1020.4 |
| 20260906002055 | 21 | 127 | 4.8 | 20.9 | 0.00 | 0.00 | 0.00 | 21 | 1020.4 |
| 20260906001609 | 21 | 123 | 11.3 | 20.9 | 0.00 | 0.00 | 0.00 | 19 | 1020.3 |
| 20260906001057 | 21 | 106 | 3.2 | 16.1 | 0.00 | 0.00 | 0.00 | 20 | 1020.3 |
| 20260906000557 | 21 | 4 | 8.0 | 33.8 | 0.00 | 0.00 | 0.00 | 19 | 1020.2 |
| 20260906000107 | 21 | 183 | 14.5 | 33.8 | 0.00 | 0.00 | 0.00 | 22 | 1020.4 |
| 20260905235557 | 21 | 132 | 12.9 | 25.7 | 0.00 | 0.00 | 0.00 | 19 | 1020.1 |
| 20260905235057 | 21 | 162 | 0.0 | 24.1 | 0.00 | 0.00 | 0.00 | 22 | 1020.3 |